Date,TemperatureHighF,TemperatureAvgF,TemperatureLowF,DewpointHighF,DewpointAvgF,DewpointLowF,HumidityHigh,HumidityAvg,HumidityLow,PressureMaxIn,PressureMinIn,WindSpeedMaxMPH,WindSpeedAvgMPH,GustSpeedMaxMPH,PrecipitationSumIn
2013-1-1,78.9,71.7,62.7,64.0,61.5,59.0,90,71,56,30.20,30.06,7,1,10,0.00
2013-1-2,83.1,69.8,57.6,68.0,63.3,57.0,97,82,53,30.10,30.00,2,0,4,0.00
2013-1-3,82.0,69.5,62.6,69.0,66.1,62.0,96,89,64,30.14,30.04,2,0,3,0.00
2013-1-4,80.1,70.7,63.5,72.0,67.6,62.0,98,90,72,30.24,30.11,2,0,4,0.00
2013-1-5,78.0,70.1,65.7,72.0,67.7,65.0,97,92,78,30.26,30.17,4,0,5,0.01
2013-1-6,82.3,71.3,62.1,74.0,68.0,61.0,98,90,71,30.20,30.07,4,1,10,0.03
2013-1-7,80.7,72.6,66.2,72.0,69.2,65.0,97,89,73,30.17,30.09,4,1,8,0.01
2013-1-8,78.7,74.2,69.8,74.0,71.2,68.0,96,90,82,30.23,30.10,4,1,9,0.09
2013-1-9,82.0,76.9,73.0,74.0,72.1,70.0,95,85,74,30.30,30.18,7,2,10,0.00
2013-1-10,79.9,76.0,73.9,71.0,68.5,65.0,85,77,63,30.31,30.20,8,2,13,0.00
2013-1-11,79.0,75.1,73.0,71.0,68.6,65.0,91,80,72,30.28,30.17,7,3,12,0.00
2013-1-12,81.6,75.6,72.1,69.0,66.4,64.0,80,73,63,30.20,30.11,6,1,7,0.00
2013-1-13,81.2,75.2,72.7,70.0,66.9,63.0,83,75,66,30.14,30.09,6,2,10,0.00
2013-1-14,80.3,74.7,68.5,69.0,66.8,63.0,87,76,64,30.18,30.13,5,1,7,0.00
2013-1-15,78.9,74.5,71.6,69.0,66.3,63.0,82,76,69,30.15,30.06,6,1,8,0.00
2013-1-16,82.3,73.1,61.4,70.0,66.5,60.0,97,80,64,30.12,30.02,8,1,8,0.00
2013-1-17,82.8,72.4,59.6,73.0,66.2,53.0,93,81,65,30.10,29.96,5,1,13,0.01
2013-1-18,72.2,63.0,51.6,61.0,53.2,45.0,84,71,60,30.24,30.10,5,1,8,0.00
2013-1-19,76.0,70.6,65.8,68.0,64.1,58.0,97,80,65,30.22,30.11,4,0,8,0.04
2013-1-20,80.0,71.1,63.3,72.0,66.9,63.0,98,87,72,30.15,30.04,2,0,6,0.00
2013-1-21,80.0,71.2,65.0,71.0,67.6,64.0,97,88,71,30.08,29.97,3,0,5,0.67
2013-1-22,68.5,66.4,63.5,64.0,56.8,52.0,96,73,60,30.23,30.02,5,1,7,0.00
2013-1-23,76.8,67.0,60.5,63.0,56.5,52.0,83,70,50,30.31,30.21,2,0,4,0.00
2013-1-24,76.5,65.7,57.7,56.0,53.2,48.0,83,66,41,30.31,30.22,4,0,5,0.00
2013-1-25,79.0,64.6,56.0,59.0,55.5,51.0,95,74,48,30.30,30.20,3,0,6,0.00
2013-1-26,79.5,65.5,56.5,61.0,56.3,51.0,96,75,45,30.27,30.17,2,0,3,0.00
2013-1-27,80.7,68.3,55.3,65.0,59.3,55.0,97,75,47,30.30,30.21,6,1,8,0.00
2013-1-28,79.8,74.5,71.2,69.0,65.7,63.0,86,74,64,30.33,30.24,8,2,11,0.00
2013-1-29,77.8,74.0,71.7,72.0,68.6,66.0,93,83,76,30.25,30.13,7,2,11,0.03
2013-1-30,79.7,74.4,70.8,69.0,66.4,64.0,90,76,64,30.13,29.98,7,2,13,0.00
2013-1-31,70.9,64.9,54.8,70.0,58.0,41.0,96,79,54,30.19,29.95,5,0,10,0.09